Find Starlink 2188

NORAD ID: 48563 Int'l Des: 2021-041 Owner: SPXS Country: US Constellation: starlink operational
LEOCIRCULAR

当前视图

正在加载3D地球...

About Starlink 2188

Starlink 2188 (NORAD 48563) is a starlink constellation satellite (v1.0) launched May 15, 2021 by SPXS of US. It operates in LEO, CIRCULAR orbit with a mass of 260.00 kg.

关于 Starlink 2188

正在加载描述...

即将过境

Passes for default location (London). Set your location on the main map for personalized predictions.

高度历史

Loading altitude history...

两行轨道根数

1 48563U 21041L 26175.90753523 .00002505 00000-0 92427-4 0 9999
2 48563 53.1585 347.9109 0001063 80.0201 280.0921 15.31712062281707
Epoch: Jun 24, 2026 • Age: 21 hours

当前状态

高度 471.5 km
速度 7.63 km/s
星下点 26.01°N, 53.06°W
发射日期 May 15, 2021
运行时间 5.1 years
类型 internet

技术详情

分类 Payload
质量 260.00 kg
干质量 248.00 kg
总质量 260.00 kg
长度 0.20 m
直径 2.80 m
跨度 9.00 m
形状 Box + pan
制造商 SPXS
平台类型 Starlink
阶段状态 In Orbit
所有者/国家 SPXS/US

Most Searched